Hourly Data Report for October 13, 2017

All times are specified in Local Standard Time (LST). Add 1 hour to adjust for Daylight Saving Time where and when it is observed.

NAPPAN AUTO
NOVA SCOTIA

45°45'34.400" N
64°14'29.200" W
19.80 m
8203702
71311
XNP

Download Data

Hourly Data (October 2017)
Hourly Data Report for October 13, 2017
Temp Definition
°C
Dew Point Temp Definition
°C
Rel Hum Definition
%
Wind Dir Definition
10's deg

Wind Spd Definition
km/h
Visibility Definition
km
Stn Press Definition
kPa
Hmdx Definition


Wind Chill Definition


Weather Definition


TIME
00:00 1.1 0.2 94 18 10   102.98     LegendNANA
01:00 -0.5 -1.0 97 16 3   103.07   -1 LegendNANA
02:00 -1.1 -1.3 99 17 4   103.09   -2 LegendNANA
03:00 -1.4 -1.6 98 19 8   103.11   -4 LegendNANA
04:00 -1.1 -1.4 98 18 6   103.12   -3 LegendNANA
05:00 -2.3 -2.5 98 19 7   103.16   -5 LegendNANA
06:00 -1.9 -2.2 98 19 9   103.21   -5 LegendNANA
07:00 -2.4 -2.8 97 19 6   103.27   -5 LegendNANA
08:00 0.4 -0.2 96 19 6   103.30     LegendNANA
09:00 4.2 2.2 87 21 9   103.33     LegendNANA
10:00 8.7 2.3 64 20 7   103.30     LegendNANA
11:00 10.7 0.4 49 21 8   103.31     LegendNANA
12:00 12.0 -1.5 39 17 7   103.25     LegendNANA
13:00 13.3 -0.6 38 19 4   103.15     LegendNANA
14:00 13.4 -0.7 38 32 5   103.09     LegendNANA
15:00 13.1 3.9 54 27 16   103.06     LegendNANA
16:00 12.4 3.6 55 24 15   103.00     LegendNANA
17:00 10.8 2.8 58 22 10   102.96     LegendNANA
18:00 8.7 2.6 65 19 6   102.98     LegendNANA
19:00 6.9 2.2 72 18 9   102.92     LegendNANA
20:00 5.7 2.6 80 18 15   102.89     LegendNANA
21:00 4.0 2.0 87 19 11   102.82     LegendNANA
22:00 4.3 2.3 87 18 10   102.79     LegendNANA
23:00 5.5 3.0 84 18 16   102.72     LegendNANA

Notes on Data Quality.

Legend

  • E = Estimated
  • M = Missing
  • NA = Not Available
  • ‡ = Partner data that is not subject to review by the National Climate Archives
Date modified: